Вернуться в каталог

PELICAN-5 300C

АктивенНаукаSSO
NORAD 66667·PAYLOAD·🇺🇸 United States

Запущен Nov 28, 2025 с Vandenberg Space Force Base

Loading…

Ближайшие Пролёты (ближайшие 24 часа)

TLE

СвежийSource: CelesTrak SupGP

Эпоха: Sep 15, 2026, 04:23 UTC

1 66667C 25276B   26258.18321759  .00025098  00000+0  71660-3 0  2586
2 66667  97.3909 333.3966 0001538 110.2606 220.4318 15.36051052    15

Отслеживайте PELICAN-5 300C в реальном времени с AllMySat

Download on the App Store